Dodge City, KS

3:56 PM CDT on June 22, 2017 (GMT -0500)
Dodge City Regional

Weather History for KDDC - December, 2013

Change the Weather History Date:

Thursday, December 12, 2013

  Actual Average Record
Temperature  
Mean Temperature 34 °F -  
Max Temperature 50 °F 47 °F 72 °F (1889)
Min Temperature 17 °F 23 °F -10 °F (1932)
Degree Days  
Heating Degree Days 32    
Moisture  
Dew Point 16 °F    
Average Humidity 53    
Maximum Humidity 77    
Minimum Humidity 16    
Precipitation  
Precipitation 0.00 in - - ()
Sea Level Pressure  
Sea Level Pressure 30.30 in    
Wind  
Wind Speed 14 mph (SSW)    
Max Wind Speed 20 mph    
Max Gust Speed 24 mph    
Visibility 10 miles    
Events      
Averages and records for this station are not official NWS values.
T = Trace of Precipitation, MM = Missing Value Source: NWS Daily Summary

Daily Weather History Graph

Daily Weather History Graph

Search for Another Location

Airport or City:

Trip Planner

Search our weather history database for the weather conditions in past years. The results will help you decide how hot, cold, wet, or windy it might be!

Date:

Astronomy

Dec. 12, 2013 Rise Set
Actual Time 7:46 AM CST 5:21 PM CST
Civil Twilight 7:16 AM CST 5:50 PM CST
Nautical Twilight 6:43 AM CST 6:23 PM CST
Astronomical Twilight 6:12 AM CST 6:55 PM CST
Moon 2:26 PM CST (12/12) 3:14 AM CST (12/12)
Length of Visible Light 10h 33m
Length of Day
9h 35m
Waxing Gibbous, 80% of the Moon is Illuminated
Dec 12
Waxing Gibbous
Dec 17
Full
Dec 25
Last Quarter
Jan 1
New
Jan 7
First Quarter

Hourly Weather History & Observations

Time (CST) Temp. Windchill Dew Point Humidity Pressure Visibility Wind Dir Wind Speed Gust Speed Precip Events Conditions
12:52 AM 21.0 °F 7.6 °F 10.0 °F 63% 30.53 in 10.0 mi SSW 15.0 mph - N/A   Clear
1:52 AM 21.0 °F 7.1 °F 10.0 °F 63% 30.51 in 10.0 mi SSW 16.1 mph - N/A   Clear
2:52 AM 21.0 °F 6.2 °F 10.9 °F 65% 30.49 in 10.0 mi SSW 18.4 mph - N/A   Clear
3:52 AM 19.9 °F 6.7 °F 12.0 °F 71% 30.47 in 10.0 mi SSW 13.8 mph - N/A   Clear
4:52 AM 19.9 °F 7.3 °F 12.0 °F 71% 30.45 in 10.0 mi SSW 12.7 mph - N/A   Clear
5:52 AM 19.0 °F 9.0 °F 12.9 °F 77% 30.46 in 10.0 mi SSW 8.1 mph - N/A   Clear
6:52 AM 19.0 °F 5.6 °F 12.9 °F 77% 30.45 in 10.0 mi SSW 13.8 mph - N/A   Clear
7:52 AM 19.0 °F 6.1 °F 12.9 °F 77% 30.45 in 10.0 mi SW 12.7 mph - N/A   Clear
8:52 AM 21.9 °F 7.3 °F 15.1 °F 75% 30.44 in 10.0 mi SSW 18.4 mph - N/A   Clear
9:52 AM 27.0 °F 16.7 °F 16.0 °F 63% 30.43 in 10.0 mi WSW 11.5 mph - N/A   Clear
10:52 AM 33.1 °F 23.9 °F 18.0 °F 54% 30.42 in 10.0 mi SSW 12.7 mph - N/A   Clear
11:52 AM 37.9 °F 30.0 °F 18.0 °F 45% 30.38 in 10.0 mi SSW 12.7 mph - N/A   Clear
12:52 PM 42.1 °F 34.2 °F 19.9 °F 41% 30.32 in 10.0 mi SSW 16.1 mph - N/A   Clear
1:52 PM 48.0 °F - 18.0 °F 30% 30.25 in 10.0 mi South 15.0 mph - N/A   Clear
2:52 PM 50.0 °F - 18.0 °F 28% 30.22 in 10.0 mi South 17.3 mph 24.2 mph N/A   Clear
3:52 PM 50.0 °F - 17.1 °F 27% 30.20 in 10.0 mi South 19.6 mph - N/A   Clear
4:52 PM 44.1 °F 37.7 °F 18.0 °F 35% 30.20 in 10.0 mi South 12.7 mph - N/A   Clear
5:52 PM 37.9 °F 32.7 °F 18.0 °F 45% 30.18 in 10.0 mi South 6.9 mph - N/A   Clear
6:52 PM 36.0 °F 27.5 °F 19.0 °F 50% 30.17 in 10.0 mi SSE 12.7 mph - N/A   Clear
7:52 PM 35.1 °F 25.9 °F 19.0 °F 52% 30.15 in 10.0 mi South 13.8 mph - N/A   Clear
8:52 PM 33.1 °F 23.0 °F 19.0 °F 56% 30.12 in 10.0 mi South 15.0 mph - N/A   Clear
9:52 PM 33.1 °F 23.0 °F 19.0 °F 56% 30.08 in 10.0 mi South 15.0 mph - N/A   Clear
10:52 PM 32.0 °F 20.8 °F 19.9 °F 61% 30.05 in 10.0 mi South 17.3 mph - N/A   Clear
11:52 PM 30.0 °F 20.0 °F 19.9 °F 66% 30.02 in 10.0 mi South 12.7 mph - N/A   Clear